SCATSAT 1 (41790 NORAD) Tracking and Keplerian Element Data

This shows tracking and keplerian element data for the satellite.

Feedback or suggestion? Click here.




ElementValue
Catalog41790
NameSCATSAT 1
Epoch Orbit11301
Epoch Day318.72497759
Epoch Year2018
RAAN3.636
Inclination98.2414
Eccentricity0.0018125
Argument of Perigee353.7527
Mean Anonmoly6.3439
Mean Motion14.50880094
Decay Rate7E-08
L11 41790U 16059H 18318.72497759 .00000007 00000-0 12916-4 0 9993
L22 41790 98.2414 3.6360 0018125 353.7527 6.3439 14.50880094113018

Live tracking and technical data element details for SCATSAT 1 (NORAD 41790). SCATSAT 1 can be tracked NOW for your location showing map with azimuth and elevation plus other details from your city location.

Track the satellite on the map from your city or location and see movement details for azimuth, elevation, latitude, longitude, range, height, and movement on the map or in text.







IsCatalogInMostPopularTable: catalog: 41790, numindb: 117
Update: records affected: 1



GetName: 41790 SCATSAT 1

Hit Count: updated at: Fri, 16 Nov 2018 03:35:15 GMT